Location: Catacaguana
(10.4120°N, 66.7591°W)
Time: 05:57:35
(UTC+00:00)

Cosmos 1484 Rocket - Pass Details

Date: 27 May 2022
Orbit: 503 x 553 km, 97.5° (Epoch: 26 June)

Event Time Altitude Azimuth Distance (km) Brightness Sun altitude
Rises 08:12:14 0° 14° (NNE) 2,689 7.0 -25.7°
Reaches altitude 10° 08:14:21 10° 17° (NNE) 1,804 6.0 -25.2°
Enters shadow 08:18:08 70° 88° (E) 583 2.9 -24.4°
